Hourly Data Report for October 27, 2016

TORONTO CITY
ONTARIO

43°40'00.000" N
79°24'00.000" W
112.50 m
6158355
71508
XTO

Download Data

Hourly Data (October 2016)
Hourly Data Report for October 27, 2016
TIME
LST
Temp Definition
°C
Dew Point Definition
°C
Rel Hum Definition
%
Precip. Amount Definition
mm

Wind Dir Definition
10's deg

Wind Spd Definition
km/h
Visibility Definition
km
Stn Press Definition
kPa
Hmdx Definition


Wind Chill Definition


Weather Definition


00:00 5.8 0.2 67 0.0 LegendMM LegendMM   101.37     LegendNANA
01:00 4.2 1.5 83 0.0 LegendMM LegendMM   101.28     LegendNANA
02:00 4.1 1.7 85 0.3 LegendMM LegendMM   101.19     LegendNANA
03:00 4.2 2.3 87 0.3 LegendMM LegendMM   101.08     LegendNANA
04:00 4.1 2.4 88 0.6 LegendMM LegendMM   100.95     LegendNANA
05:00 4.0 2.5 90 0.9 LegendMM LegendMM   100.85     LegendNANA
06:00 4.5 2.8 89 0.2 LegendMM LegendMM   100.68     LegendNANA
07:00 5.1 3.4 89 0.2 LegendMM LegendMM   100.52     LegendNANA
08:00 5.3 3.1 86 0.0 LegendMM LegendMM   100.49     LegendNANA
09:00 5.3 3.4 88 0.7 LegendMM LegendMM   100.37     LegendNANA
10:00 5.4 3.4 87 0.0 LegendMM LegendMM   100.25     LegendNANA
11:00 5.6 4.1 90 0.2 LegendMM LegendMM   100.19     LegendNANA
12:00 5.8 4.8 93 1.7 LegendMM LegendMM   100.10     LegendNANA
13:00 6.5 5.5 93 2.1 LegendMM LegendMM   100.07     LegendNANA
14:00 4.6 3.3 91 1.4 LegendMM LegendMM   100.01     LegendNANA
15:00 2.6 1.3 91 0.6 LegendMM LegendMM   100.06     LegendNANA
16:00 1.7 0.4 91 0.0 LegendMM LegendMM   100.17     LegendNANA
17:00 1.3 0.1 92 0.3 LegendMM LegendMM   100.25     LegendNANA
18:00 1.2 -0.2 90 0.0 LegendMM LegendMM   100.36     LegendNANA
19:00 1.2 -0.3 90 0.0 LegendMM LegendMM   100.48     LegendNANA
20:00 1.6 -0.6 85 0.0 LegendMM LegendMM   100.55     LegendNANA
21:00 1.6 -0.3 87 0.0 LegendMM LegendMM   100.59     LegendNANA
22:00 1.6 -0.6 86 0.0 LegendMM LegendMM   100.66     LegendNANA
23:00 1.6 -0.6 85 0.0 LegendMM LegendMM   100.68     LegendNANA

Notes on Data Quality.

Legend

  • E = Estimated
  • M = Missing
  • NA = Not Available*
  • [empty] = Indicates an unobserved value
Date modified: